Weather in Cholpon

Kyrgyzstan     42°51′28″N   75°08′35″E
temp.,
°C
wind,
m/s
gust,
m/s
humid.,
%
clouds,
%
prec.,
mm/h
press.,
hPa
HPBL,
m
2 december, thu
thu200:00+3sse44450 0.0 102340
03:00+3sse44440 0.0 102146
06:00+3sse44425 0.0 102135
09:00+5sse443962 0.0 102251
12:00+11se46415 0.0 1018196
15:00+12se464094 0.0 1017151
18:00+7sse56335 0.0 101959
21:00+6sse553347 0.0 101951
3 december, fri
fri300:00+6sse44335 0.0 101842
03:00+6sse4433100 0.0 101847
06:00+6sse442999 0.0 101732
09:00+7sse3429100 0.0 101836
12:00+12se242899 0.0 1018143
15:00+12wnw2333100 0.0 1019115
18:00+8sse3238100 0.0 102217
21:00+8sse3337100 0.0 102435
4 december, sat
sat400:00+7s2243100 0.0 102415
03:00+6s1148100 0.0 102511
06:00+5sse115186 0.0 102510
09:00+5sse224593 0.0 102512
12:00+9ene1237100 0.0 1023198
15:00+10nnw1138100 0.0 1021211
18:00+6s114786 0.0 102211
21:00+6sse224276 0.0 102114
5 december, sun
sun500:00+6sse223885 0.0 101916
03:00+6sse2236100 0.0 101915
06:00+5sse223690 0.0 101812
09:00+5s1139100 0.0 101911
12:00+8nnw1136100 0.0 1019121
15:00+8wnw1138100 0.0 1018280
18:00+5n0155100 0.0 102212
21:00+4ese1161100 0.0 102341
6 december, mon
mon600:00+4e116096 0.1 102217
03:00+3sse1160100 0.0 102310
06:00+2w1169100 0.0 102522
09:00+1n1187100 0.1 1027343
12:00+2e229488 0.3 1027289
15:00+6e2361100 0.0 1023336
18:00+3w2279100 0.0 102537
21:00+2ese117537 0.0 102510